Theta_e
322 320 322 329 334 337 337 341 354 352 353 354 354 355 355 350 348 352 349 349 346 341
321 322 322 326 335 336 343 340 346 349 351 352 354 354 353 346 348 348 349 351 349 338
319 320 321 325 330 337 342 344 344 346 350 351 350 348 350 347 349 347 344 343 345 343
317 319 320 322 326 336 342 343 343 344 346 346 347 348 347 347 345 344 339 339 340 337
317 318 318 321 326 336 339 344 344 343 343 344 344 346 346 344 342 341 335 335 335 330
316 317 318 321 325 334 338 341 343 343 342 341 342 343 345 343 339 337 335 333 330 329
314 316 317 320 323 334 339 341 341 341 340 340 341 342 343 341 338 335 334 329 330 330
313 316 317 319 322 334 337 338 335 337 339 340 341 340 341 335 331 333 326 326 325 326
311 315 316 319 322 333 334 336 334 332 333 337 337 314 315 330 328 328 323 318 318 314
310 314 316 318 320 331 332 334 335 334 335 335 332 307 307 313 325 317 315 312 310 307
310 314 316 318 321 327 329 329 331 335 333 328 321 306 305 309 314 312 312 314 310 307
311 314 315 317 322 325 323 321 324 324 321 318 310 304 303 310 309 308 308 310 310 308
311 314 315 315 320 316 314 313 315 314 313 308 307 303 301 307 308 306 304 304 305 302
313 315 317 315 314 312 309 308 307 305 304 306 304 304 299 301 305 304 302 299 299 300
Wind_Speed
14 11 11 13 11 11 12 12 11 13 15 16 15 14 13 10 10 11 12 15 10 8
14 14 14 16 15 12 12 13 13 15 17 18 18 17 14 11 12 10 11 13 14 7
15 16 15 14 16 16 14 13 14 15 16 17 16 16 14 10 13 13 9 9 12 11
16 16 15 15 16 15 15 14 16 16 17 17 15 14 14 14 14 14 10 11 12 11
16 16 16 15 16 17 15 14 16 17 17 16 14 14 15 16 13 13 12 11 10 11
16 15 16 15 15 17 14 12 13 16 16 16 15 15 15 15 14 13 14 14 12 13
16 16 15 15 16 16 12 13 13 13 14 14 13 15 15 14 15 14 14 11 13 16
17 16 15 15 15 13 10 10 11 11 10 12 12 9 10 11 14 16 13 10 10 11
17 15 14 14 15 12 10 9 9 10 11 11 7 9 12 16 13 15 13 12 9 13
17 14 13 13 12 13 10 7 9 10 9 9 9 12 9 10 10 12 13 15 15 12
16 13 12 10 10 9 6 6 7 7 6 6 5 14 14 15 15 13 14 15 17 18
14 11 10 8 7 5 2 2 1 2 4 7 9 20 19 16 12 14 14 12 15 18
12 10 10 7 3 2 4 5 5 8 7 9 11 8 11 17 11 16 13 11 14 21
11 8 7 2 5 5 6 7 9 11 10 10 9 10 12 10 11 15 14 13 13 14
Wind_Direction
308 299 295 279 285 277 253 244 226 210 212 205 199 217 217 223 225 221 219 218 214 212
303 297 291 288 279 273 258 258 239 218 212 209 208 204 201 217 218 220 217 212 204 172
301 291 286 287 281 276 267 248 245 226 217 212 203 197 195 202 217 211 208 202 202 194
291 291 286 286 283 273 264 243 230 226 218 211 205 196 198 195 207 212 192 194 192 179
288 290 283 284 285 275 262 249 231 219 212 209 204 202 206 199 199 197 182 181 178 154
288 289 282 284 286 276 265 236 238 217 208 205 205 212 207 207 200 179 179 174 166 165
290 288 284 286 286 273 265 234 222 214 217 221 213 218 205 205 190 178 171 173 177 170
289 285 281 282 285 265 250 227 212 210 221 222 215 214 197 175 181 176 162 154 179 165
289 283 278 279 279 253 243 231 230 233 227 224 220 188 170 172 172 163 146 139 124 120
282 278 277 278 295 268 235 233 232 231 226 211 205 157 158 158 152 139 137 139 132 121
277 272 274 281 285 272 252 233 232 233 192 178 136 131 136 139 131 129 133 142 135 130
274 272 269 284 272 293 271 102 175 105 140 120 130 140 140 123 119 118 125 126 129 130
269 267 268 307 186 71 79 80 75 71 74 101 122 98 110 123 128 133 112 105 115 120
258 255 256 130 115 110 91 85 78 76 65 82 83 81 68 111 143 129 119 124 116 112